Home > Weather > Alfeld (Leine) > Past weeks

Flag for Germany Weather for the Past 2 Weeks in Alfeld (Leine), Lower Saxony, Germany

Now
37 °F

Clear.


Feels Like: 31 °F
Forecast: 39 / 51 °F
Wind: 9 mph from South

Location: Hannover

Current Time: Apr 29, 2016 at 6:55:25 AM

Latest Report: Apr 29, 2016 at 6:20 AM


Visibility: 10 mi

Pressure: 29.95 "Hg

Humidity: 93%

Dew Point: 36 °F

Location of Alfeld (Leine)Location

Historic Weather in Alfeld (Leine) — Graph

°F

Alfeld (Leine) Temperature Yesterday

Maximum temperature yesterday: 50 °F (at 4:20 PM)
Minimum temperature yesterday: 36 °F (at 3:20 AM)
Average temperature yesterday: 42 °F

High & Low Weather Summary for the Past Weeks

 TemperatureHumidityPressure
High59 °F (Apr 14, 4:20 PM)100% (Apr 14, 7:50 AM)30.45 "Hg (Apr 14, 7:50 AM)
Low30 °F (Apr 25, 1:20 AM)34% (Apr 21, 4:20 PM)29.42 "Hg (Apr 26, 10:50 AM)
Average44 °F78%29.88 "Hg
* Reported Apr 14 5:20 AM — Apr 29 5:20 AM, Alfeld (Leine), Weather by CustomWeather, © 2016

Note: Actual official high and low records may vary slightly from our data, if they occured in-between our weather recording intervals... More about our weather records

Advertising

Alfeld (Leine) Weather History for the Previous 24 Hours

Scroll right to see more
 ConditionsComfort  
Time TempWeatherWind HumidityBarometerVisibility
5:20 AM
Fri, Apr 29
36 °FClear.7 mph93%29.98 "Hg10 mi
4:20 AM36 °FClear.6 mph93%29.98 "Hg10 mi
3:50 AM37 °FClear.8 mph93%29.98 "Hg10 mi
3:20 AM37 °FClear.7 mph87%29.98 "Hg10 mi
2:50 AM37 °FClear.7 mph87%29.98 "Hg10 mi
2:20 AM37 °FClear.5 mph87%29.98 "Hg10 mi
1:50 AM37 °FClear.7 mph87%29.98 "Hg10 mi
1:20 AM39 °FClear.7 mph87%29.98 "Hg10 mi
12:50 AM39 °FPassing clouds.6 mph81%29.98 "HgN/A
12:20 AM41 °FClear.5 mph81%29.98 "Hg10 mi
11:50 PM
Thu, Apr 28
39 °FClear.2 mph93%29.98 "Hg10 mi
11:20 PM39 °FPassing clouds.3 mph87%29.98 "HgN/A
10:50 PM37 °FClear.1 mph93%29.98 "Hg10 mi
10:20 PM39 °FPassing clouds.3 mph87%29.98 "HgN/A
9:50 PM39 °FPassing clouds.6 mph81%29.98 "HgN/A
9:20 PM43 °FScattered clouds.5 mph76%29.98 "HgN/A
8:50 PM43 °FScattered clouds.3 mph76%29.98 "HgN/A
8:20 PM43 °FScattered clouds.3 mph76%29.95 "HgN/A
7:50 PM45 °FScattered clouds.No wind71%29.95 "HgN/A
7:20 PM46 °FPartly sunny.1 mph62%29.95 "HgN/A
6:50 PM46 °FPartly sunny.5 mph71%29.95 "HgN/A
6:20 PM46 °FPartly sunny.5 mph71%29.95 "HgN/A
5:50 PM45 °FScattered showers. Partly sunny.10 mph71%29.95 "HgN/A
5:20 PM46 °FBroken clouds.10 mph66%29.95 "HgN/A
4:50 PM46 °FThundershowers. Broken clouds.14 mph71%29.95 "HgN/A
4:20 PM50 °FBroken clouds.12 mph54%29.92 "HgN/A
3:50 PM46 °FScattered showers. Scattered clouds.20 mph62%29.95 "HgN/A
3:20 PM46 °FSprinkles. Scattered clouds.17 mph76%29.92 "HgN/A
2:20 PM48 °FScattered clouds.16 mph58%29.92 "HgN/A
1:50 PM48 °FScattered showers. Scattered clouds.17 mph54%29.92 "HgN/A
1:20 PM46 °FScattered showers. Broken clouds.12 mph62%29.89 "HgN/A
12:50 PM46 °FBroken clouds.16 mph62%29.89 "HgN/A
12:20 PM46 °FPartly sunny.12 mph66%29.89 "HgN/A
11:50 AM45 °FScattered showers. Partly sunny.15 mph71%29.89 "HgN/A
11:20 AM45 °FScattered showers. Broken clouds.15 mph71%29.89 "HgN/A
10:20 AM45 °FBroken clouds.15 mph76%29.89 "HgN/A
9:20 AM41 °FPartly sunny.10 mph87%29.86 "HgN/A
7:50 AM37 °FScattered clouds.12 mph93%29.86 "HgN/A
7:20 AM36 °FScattered clouds.10 mph93%29.83 "HgN/A
6:50 AM36 °FPassing clouds.8 mph93%29.83 "HgN/A
Weather by CustomWeather, © 2016

See weather overviewHow to use our weather pages